When you browse on this site, cookies collect data to enhance your experience and personalize the content and advertising you see.
Visit our Privacy Policy to learn more. By continuing to use the site, you agree to this use of cookies and data.
  • In Hungary
  • List of Countries
  • For 7 days
  • Water Temperature
  • Satellite Maps
  • Weather Map
  • News
  • Weather Widgets
  • user-avatar
    Login

    Hourly Weather Jinotepe

    Today, 22 January, Tuesday

    Time Temperature Precipitation Wind Pressure Humidity
    00:00 +22°C° 0 mm 7 mps 712 mmHg 73%
    01:00 +22°C° 0 mm 7 mps 711 mmHg 74%
    02:00 +22°C° 0 mm 7 mps 711 mmHg 74%
    03:00 +22°C° 0 mm 7 mps 711 mmHg 75%
    04:00 +21°C° 0 mm 7 mps 711 mmHg 75%
    05:00 +21°C° 0 mm 6 mps 711 mmHg 75%
    06:00 +21°C° 0 mm 6 mps 711 mmHg 75%
    07:00 +23°C° 0 mm 7 mps 712 mmHg 70%
    08:00 +24°C° 0 mm 7 mps 713 mmHg 64%
    09:00 +26°C° 0 mm 7 mps 713 mmHg 58%
    10:00 +27°C° 0 mm 8 mps 713 mmHg 55%
    11:00 +28°C° 0 mm 8 mps 713 mmHg 52%
    12:00 +31°C° 0 mm 8 mps 712 mmHg 49%
    13:00 +31°C° 0 mm 8 mps 712 mmHg 47%
    14:00 +31°C° 0 mm 8 mps 711 mmHg 46%
    15:00 +31°C° 0 mm 8 mps 710 mmHg 44%
    16:00 +29°C° 0 mm 8 mps 710 mmHg 46%
    17:00 +28°C° 0 mm 7 mps 710 mmHg 49%
    18:00 +27°C° 0 mm 7 mps 710 mmHg 51%
    19:00 +26°C° 0 mm 7 mps 711 mmHg 56%
    20:00 +24°C° 0 mm 7 mps 711 mmHg 61%
    21:00 +24°C° 0 mm 7 mps 711 mmHg 65%
    22:00 +23°C° 0 mm 7 mps 711 mmHg 67%
    23:00 +23°C° 0 mm 7 mps 711 mmHg 69%

    Tomorrow, 23 January, Wednesday

    Time Temperature Precipitation Wind Pressure Humidity
    00:00 +23°C° 0 mm 7 mps 711 mmHg 71%
    01:00 +22°C° 0 mm 7 mps 711 mmHg 72%
    02:00 +22°C° 0 mm 7 mps 710 mmHg 72%
    03:00 +22°C° 0 mm 7 mps 710 mmHg 73%
    04:00 +22°C° 0 mm 7 mps 710 mmHg 75%
    05:00 +22°C° 0 mm 6 mps 711 mmHg 77%
    06:00 +22°C° 0 mm 6 mps 711 mmHg 78%
    07:00 +23°C° 0 mm 6 mps 711 mmHg 71%
    08:00 +26°C° 0 mm 7 mps 712 mmHg 64%
    09:00 +27°C° 0 mm 7 mps 713 mmHg 57%
    10:00 +28°C° 0 mm 7 mps 712 mmHg 51%
    11:00 +30°C° 0 mm 7 mps 712 mmHg 44%
    12:00 +32°C° 0 mm 7 mps 712 mmHg 38%
    13:00 +33°C° 0 mm 7 mps 711 mmHg 39%
    14:00 +33°C° 0 mm 6 mps 710 mmHg 40%
    15:00 +33°C° 0 mm 6 mps 709 mmHg 41%
    16:00 +30°C° 0 mm 6 mps 709 mmHg 46%
    17:00 +29°C° 0 mm 6 mps 710 mmHg 51%
    18:00 +27°C° 0 mm 5 mps 710 mmHg 56%
    19:00 +27°C° 0 mm 5 mps 710 mmHg 60%
    20:00 +26°C° 0 mm 5 mps 711 mmHg 64%
    21:00 +25°C° 0 mm 5 mps 711 mmHg 68%
    22:00 +25°C° 0 mm 5 mps 711 mmHg 69%
    23:00 +23°C° 0 mm 5 mps 711 mmHg 69%

    Day after tomorrow, 24 January, Thursday

    Time Temperature Precipitation Wind Pressure Humidity
    00:00 +23°C° 0 mm 5 mps 711 mmHg 70%
    01:00 +22°C° 0 mm 5 mps 710 mmHg 73%
    02:00 +22°C° 0 mm 5 mps 710 mmHg 76%
    03:00 +22°C° 0 mm 5 mps 709 mmHg 78%
    04:00 +22°C° 0 mm 5 mps 710 mmHg 79%
    05:00 +22°C° 0 mm 5 mps 710 mmHg 79%
    06:00 +22°C° 0 mm 4 mps 710 mmHg 79%
    07:00 +23°C° 0 mm 5 mps 711 mmHg 72%
    08:00 +26°C° 0 mm 5 mps 712 mmHg 65%
    09:00 +27°C° 0 mm 5 mps 713 mmHg 57%
    10:00 +29°C° 0 mm 5 mps 712 mmHg 52%
    11:00 +32°C° 0 mm 5 mps 712 mmHg 47%
    12:00 +33°C° 0 mm 5 mps 712 mmHg 42%
    13:00 +33°C° 0 mm 5 mps 711 mmHg 42%
    14:00 +33°C° 0 mm 5 mps 710 mmHg 41%
    15:00 +34°C° 0 mm 5 mps 710 mmHg 40%
    16:00 +32°C° 0 mm 5 mps 710 mmHg 45%
    17:00 +29°C° 0 mm 5 mps 710 mmHg 49%
    18:00 +28°C° 0 mm 5 mps 710 mmHg 54%
    19:00 +27°C° 0 mm 5 mps 710 mmHg 59%
    20:00 +26°C° 0 mm 5 mps 711 mmHg 65%
    21:00 +25°C° 0 mm 5 mps 711 mmHg 70%
    22:00 +23°C° 0 mm 5 mps 711 mmHg 72%
    23:00 +23°C° 0 mm 5 mps 711 mmHg 74%

    25 January, Friday

    Time Temperature Precipitation Wind Pressure Humidity
    00:00 +23°C° 0 mm 5 mps 711 mmHg 76%
    01:00 +23°C° 0 mm 5 mps 711 mmHg 77%
    02:00 +22°C° 0 mm 5 mps 710 mmHg 77%
    03:00 +22°C° 0 mm 5 mps 710 mmHg 77%
    04:00 +22°C° 0 mm 5 mps 710 mmHg 77%
    05:00 +22°C° 0 mm 5 mps 711 mmHg 77%
    06:00 +22°C° 0 mm 5 mps 711 mmHg 77%
    07:00 +23°C° 0 mm 5 mps 711 mmHg 70%
    08:00 +26°C° 0 mm 6 mps 712 mmHg 64%
    09:00 +27°C° 0 mm 6 mps 713 mmHg 57%
    10:00 +29°C° 0 mm 6 mps 712 mmHg 52%
    11:00 +30°C° 0 mm 7 mps 712 mmHg 47%
    12:00 +33°C° 0 mm 7 mps 712 mmHg 42%
    13:00 +33°C° 0 mm 7 mps 711 mmHg 42%
    14:00 +33°C° 0 mm 6 mps 710 mmHg 41%
    15:00 +33°C° 0 mm 6 mps 709 mmHg 40%
    16:00 +32°C° 0 mm 6 mps 710 mmHg 45%
    17:00 +29°C° 0 mm 5 mps 710 mmHg 49%
    18:00 +28°C° 0 mm 5 mps 710 mmHg 54%
    19:00 +27°C° 0 mm 5 mps 711 mmHg 58%
    20:00 +27°C° 0 mm 5 mps 711 mmHg 62%
    21:00 +26°C° 0 mm 5 mps 712 mmHg 66%
    22:00 +25°C° 0 mm 5 mps 712 mmHg 68%
    23:00 +25°C° 0 mm 5 mps 711 mmHg 71%

    26 January, Saturday

    Time Temperature Precipitation Wind Pressure Humidity
    00:00 +23°C° 0 mm 5 mps 711 mmHg 74%
    01:00 +23°C° 0 mm 5 mps 711 mmHg 75%
    02:00 +22°C° 0 mm 5 mps 710 mmHg 76%
    03:00 +22°C° 0 mm 5 mps 710 mmHg 77%
    04:00 +22°C° 0 mm 5 mps 710 mmHg 76%
    05:00 +22°C° 0 mm 5 mps 711 mmHg 75%
    06:00 +22°C° 0 mm 5 mps 711 mmHg 73%
    07:00 +23°C° 0 mm 5 mps 711 mmHg 68%
    08:00 +26°C° 0 mm 5 mps 712 mmHg 62%
    09:00 +27°C° 0 mm 6 mps 712 mmHg 57%
    10:00 +29°C° 0 mm 6 mps 712 mmHg 52%
    11:00 +30°C° 0 mm 6 mps 711 mmHg 48%
    12:00 +32°C° 0 mm 6 mps 711 mmHg 43%
    13:00 +32°C° 0 mm 6 mps 710 mmHg 43%
    14:00 +33°C° 0 mm 5 mps 709 mmHg 43%
    15:00 +33°C° 0 mm 5 mps 708 mmHg 43%
    16:00 +30°C° 0 mm 5 mps 709 mmHg 48%
    17:00 +29°C° 0 mm 4 mps 709 mmHg 53%
    18:00 +28°C° 0 mm 3 mps 709 mmHg 58%
    19:00 +27°C° 0 mm 4 mps 710 mmHg 61%
    20:00 +26°C° 0 mm 4 mps 710 mmHg 65%
    21:00 +25°C° 0 mm 4 mps 711 mmHg 69%
    22:00 +25°C° 0 mm 4 mps 711 mmHg 71%
    23:00 +23°C° 0 mm 4 mps 710 mmHg 74%

    27 January, Sunday

    Time Temperature Precipitation Wind Pressure Humidity
    00:00 +24°C° 0 mm 3 mps 710 mmHg 76%
    01:00 +22°C° 0 mm 3 mps 710 mmHg 78%
    02:00 +22°C° 0 mm 3 mps 710 mmHg 80%
    03:00 +22°C° 0 mm 3 mps 710 mmHg 82%
    04:00 +22°C° 0 mm 3 mps 710 mmHg 82%
    05:00 +22°C° 0 mm 3 mps 710 mmHg 82%
    06:00 +21°C° 0 mm 3 mps 710 mmHg 82%
    07:00 +24°C° 0 mm 3 mps 711 mmHg 74%
    08:00 +26°C° 0 mm 4 mps 712 mmHg 66%
    09:00 +27°C° 0 mm 4 mps 712 mmHg 58%
    10:00 +29°C° 0 mm 4 mps 712 mmHg 54%
    11:00 +30°C° 0 mm 4 mps 711 mmHg 49%
    12:00 +33°C° 0 mm 3 mps 711 mmHg 45%
    13:00 +33°C° 0 mm 3 mps 710 mmHg 44%
    14:00 +33°C° 0 mm 3 mps 710 mmHg 44%
    15:00 +33°C° 0 mm 3 mps 709 mmHg 44%
    16:00 +30°C° 0 mm 3 mps 709 mmHg 51%
    17:00 +29°C° 0 mm 2 mps 709 mmHg 57%
    18:00 +27°C° 0 mm 2 mps 709 mmHg 64%
    19:00 +26°C° 0 mm 2 mps 709 mmHg 68%
    20:00 +25°C° 0 mm 2 mps 710 mmHg 71%
    21:00 +24°C° 0 mm 1 mps 710 mmHg 75%
    22:00 +24°C° 0 mm 2 mps 710 mmHg 75%
    23:00 +24°C° 0 mm 2 mps 710 mmHg 75%
    Show more